SAA563 EDDM-KJFK

Flight info

Callsign SAA563
Flight time N/A
Altitude 36000
Route GIVMI1N GIVMI Y101 INBED DCT REKDI DCT LOHRE DCT ADKUV DCT DENUT L610 KOPUL Q60 OKSAW DCT TEWXI DCT VATRY DCT DOGAL/M082F370 NATC ELSIR/N0471F380 N402C ALLEX DCT ENE PARCH4
Aircraft A346/H-SDE2E3FGHIJ3J4J5M1RWXY/LB1D1

Departure

Time N/A
Airport Munich Airport (EDDM)

Arrival

Time 2026-05-07 19:00
Airport John F. Kennedy International Airport (KJFK)
Time Latitude Longitude Altitude Speed Heading
2026-05-07 15:16 51.25462 -42.16545 37252 ft 445 kts 262°
2026-05-07 15:16 51.24245 -42.26403 37252 ft 445 kts 262°
2026-05-07 15:17 51.23039 -42.36099 37251 ft 446 kts 262°
2026-05-07 15:17 51.21814 -42.45879 37254 ft 446 kts 262°
2026-05-07 15:18 51.20583 -42.55641 37256 ft 446 kts 262°
2026-05-07 15:18 51.19347 -42.65365 37251 ft 446 kts 262°
2026-05-07 15:19 51.18100 -42.75116 37254 ft 446 kts 262°
2026-05-07 15:19 51.16845 -42.84851 37248 ft 446 kts 262°
2026-05-07 15:20 51.15580 -42.94602 37248 ft 447 kts 261°
2026-05-07 15:20 51.14302 -43.04386 37249 ft 447 kts 261°
2026-05-07 15:21 51.13014 -43.14177 37251 ft 447 kts 261°
2026-05-07 15:21 51.11727 -43.23888 37248 ft 447 kts 261°
2026-05-07 15:22 51.10425 -43.33653 37254 ft 448 kts 261°
2026-05-07 15:22 51.09128 -43.43313 37242 ft 448 kts 261°
2026-05-07 15:23 51.07810 -43.53058 37251 ft 448 kts 261°
2026-05-07 15:23 51.06479 -43.62841 37251 ft 448 kts 260°
2026-05-07 15:24 51.05147 -43.72564 37251 ft 448 kts 260°
2026-05-07 15:24 51.03806 -43.82291 37248 ft 448 kts 260°
2026-05-07 15:25 51.02453 -43.92033 37246 ft 448 kts 260°
2026-05-07 15:25 51.01099 -44.01724 37238 ft 448 kts 260°
2026-05-07 15:26 50.99729 -44.11464 37244 ft 448 kts 259°
2026-05-07 15:26 50.98349 -44.21212 37247 ft 448 kts 259°
2026-05-07 15:27 50.96971 -44.30886 37247 ft 448 kts 259°
2026-05-07 15:27 50.95569 -44.40658 37240 ft 448 kts 259°
2026-05-07 15:28 50.94169 -44.50362 37243 ft 448 kts 259°
2026-05-07 15:28 50.92762 -44.60049 37242 ft 448 kts 259°
2026-05-07 15:29 50.91346 -44.69736 37244 ft 448 kts 259°
2026-05-07 15:29 50.89921 -44.79433 37244 ft 448 kts 259°
2026-05-07 15:30 50.88483 -44.89150 37244 ft 448 kts 258°
2026-05-07 15:30 50.87043 -44.98820 37243 ft 448 kts 258°
2026-05-07 15:31 50.85602 -45.08443 37243 ft 448 kts 258°
2026-05-07 15:31 50.84141 -45.18131 37245 ft 448 kts 258°
2026-05-07 15:32 50.82676 -45.27796 37245 ft 448 kts 258°
2026-05-07 15:32 50.81207 -45.37423 37248 ft 447 kts 258°
2026-05-07 15:33 50.79729 -45.47052 37246 ft 447 kts 258°
2026-05-07 15:33 50.78259 -45.56569 37251 ft 447 kts 257°
2026-05-07 15:34 50.77008 -45.64633 37247 ft 447 kts 257°
2026-05-07 15:34 50.75270 -45.75757 37250 ft 446 kts 257°
2026-05-07 15:35 50.74008 -45.83788 37249 ft 446 kts 257°
2026-05-07 15:35 50.72247 -45.94936 37243 ft 446 kts 257°
2026-05-07 15:36 50.70728 -46.04492 37249 ft 446 kts 257°
2026-05-07 15:36 50.69461 -46.12416 37247 ft 446 kts 257°
2026-05-07 15:37 50.67921 -46.22001 37250 ft 446 kts 257°
2026-05-07 15:37 50.66394 -46.31446 37249 ft 445 kts 256°
2026-05-07 15:38 50.64847 -46.40968 37249 ft 445 kts 256°
2026-05-07 15:38 50.63293 -46.50474 37249 ft 445 kts 256°
2026-05-07 15:39 50.61728 -46.60000 37246 ft 445 kts 256°
2026-05-07 15:39 50.60151 -46.69538 37246 ft 445 kts 256°
2026-05-07 15:40 50.58577 -46.79003 37240 ft 444 kts 256°
2026-05-07 15:40 50.56998 -46.88454 37244 ft 444 kts 256°
2026-05-07 15:41 50.55401 -46.97951 37244 ft 444 kts 256°
2026-05-07 15:41 50.53795 -47.07456 37244 ft 443 kts 255°
2026-05-07 15:42 50.52162 -47.17067 37245 ft 442 kts 255°
2026-05-07 15:42 50.50542 -47.26549 37233 ft 442 kts 255°
2026-05-07 15:43 50.48924 -47.35965 37244 ft 441 kts 255°
2026-05-07 15:43 50.47298 -47.45379 37237 ft 440 kts 255°
2026-05-07 15:44 50.45674 -47.54727 37234 ft 440 kts 255°
2026-05-07 15:44 50.44059 -47.63980 37237 ft 439 kts 255°
2026-05-07 15:45 50.42426 -47.73287 37239 ft 438 kts 255°
2026-05-07 15:45 50.40788 -47.82575 37237 ft 437 kts 254°
2026-05-07 15:46 50.38326 -47.96444 37237 ft 436 kts 254°
2026-05-07 15:47 50.36684 -48.05631 37234 ft 436 kts 254°
2026-05-07 15:47 50.35030 -48.14841 37234 ft 436 kts 254°
2026-05-07 15:48 50.33369 -48.24043 37234 ft 435 kts 254°
2026-05-07 15:48 50.31704 -48.33226 37229 ft 435 kts 253°
2026-05-07 15:49 50.30041 -48.42347 37231 ft 435 kts 253°
2026-05-07 15:49 50.28356 -48.51541 37229 ft 434 kts 253°
2026-05-07 15:50 50.26682 -48.60632 37225 ft 434 kts 253°
2026-05-07 15:50 50.24986 -48.69795 37224 ft 434 kts 253°
2026-05-07 15:51 50.23298 -48.78871 37229 ft 433 kts 253°
2026-05-07 15:51 50.21602 -48.87947 37226 ft 433 kts 253°
2026-05-07 15:52 50.19900 -48.97009 37222 ft 432 kts 253°
2026-05-07 15:52 50.18179 -49.06129 37226 ft 431 kts 252°
2026-05-07 15:53 50.16465 -49.15167 37224 ft 430 kts 252°
2026-05-07 15:53 50.14743 -49.24204 37226 ft 429 kts 252°
2026-05-07 15:54 50.13029 -49.33161 37221 ft 428 kts 252°
2026-05-07 15:54 50.11307 -49.42112 37225 ft 427 kts 252°
2026-05-07 15:55 50.09563 -49.51136 37222 ft 427 kts 252°
2026-05-07 15:55 50.07819 -49.60121 37222 ft 426 kts 252°
2026-05-07 15:56 50.06094 -49.68969 37223 ft 426 kts 252°
2026-05-07 15:56 50.04354 -49.77854 37222 ft 425 kts 252°
2026-05-07 15:57 50.02599 -49.86772 37419 ft 428 kts 251°
2026-05-07 15:57 50.01720 -49.91215 37849 ft 425 kts 251°
2026-05-07 15:57 50.00845 -49.95632 38213 ft 422 kts 252°
2026-05-07 15:58 49.98945 -50.04299 38210 ft 420 kts 249°
2026-05-07 15:58 49.96882 -50.12891 38216 ft 420 kts 248°
2026-05-07 15:59 49.94817 -50.21463 38213 ft 420 kts 248°
2026-05-07 15:59 49.92741 -50.30053 38215 ft 420 kts 248°
2026-05-07 16:00 49.90684 -50.38531 38206 ft 420 kts 248°
2026-05-07 16:00 49.88609 -50.47051 38209 ft 420 kts 248°
2026-05-07 16:01 49.86523 -50.55582 38212 ft 419 kts 248°
2026-05-07 16:01 49.84429 -50.64114 38203 ft 419 kts 248°
2026-05-07 16:02 49.82325 -50.72649 38207 ft 419 kts 247°
2026-05-07 16:02 49.80204 -50.81226 38200 ft 418 kts 247°
2026-05-07 16:03 49.78103 -50.89688 38196 ft 418 kts 247°
2026-05-07 16:03 49.75871 -50.98639 38196 ft 418 kts 247°
2026-05-07 16:04 49.73636 -51.07571 38190 ft 418 kts 246°
2026-05-07 16:04 49.72188 -51.13338 38192 ft 417 kts 246°
2026-05-07 16:05 49.69281 -51.24868 38190 ft 417 kts 246°
2026-05-07 16:05 49.67085 -51.33541 38170 ft 417 kts 246°
2026-05-07 16:06 49.64951 -51.41937 38170 ft 417 kts 246°
2026-05-07 16:06 49.62804 -51.50355 38182 ft 417 kts 246°
2026-05-07 16:07 49.60569 -51.59082 38167 ft 416 kts 245°
2026-05-07 16:07 49.58279 -51.67993 38166 ft 416 kts 245°
2026-05-07 16:08 49.56079 -51.76522 38168 ft 416 kts 245°
2026-05-07 16:08 49.53931 -51.84819 38168 ft 416 kts 245°
2026-05-07 16:09 49.51734 -51.93276 38166 ft 415 kts 245°
2026-05-07 16:09 49.49395 -52.02289 38162 ft 415 kts 245°
2026-05-07 16:10 49.47236 -52.11014 38156 ft 415 kts 246°
2026-05-07 16:10 49.45129 -52.19545 38155 ft 415 kts 245°
2026-05-07 16:11 49.43053 -52.27898 38150 ft 415 kts 245°
2026-05-07 16:11 49.40875 -52.36623 38149 ft 414 kts 245°
2026-05-07 16:12 49.38782 -52.44967 38147 ft 414 kts 245°
2026-05-07 16:12 49.36688 -52.53290 38145 ft 414 kts 245°
2026-05-07 16:13 49.34596 -52.61565 38140 ft 414 kts 245°
2026-05-07 16:13 49.32489 -52.69875 38133 ft 415 kts 245°
2026-05-07 16:14 49.30383 -52.78145 38133 ft 415 kts 245°
2026-05-07 16:14 49.28274 -52.86402 38119 ft 415 kts 245°
2026-05-07 16:15 49.26158 -52.94654 38131 ft 414 kts 245°
2026-05-07 16:15 49.24024 -53.02950 38121 ft 414 kts 245°
2026-05-07 16:16 49.21900 -53.11168 38117 ft 414 kts 245°
2026-05-07 16:16 49.19761 -53.19422 38109 ft 414 kts 245°
2026-05-07 16:17 49.17626 -53.27626 38105 ft 414 kts 245°
2026-05-07 16:17 49.15498 -53.35780 38100 ft 414 kts 245°
2026-05-07 16:18 49.13338 -53.44022 38095 ft 414 kts 245°
2026-05-07 16:18 49.11170 -53.52270 38091 ft 413 kts 244°
2026-05-07 16:19 49.09008 -53.60462 38086 ft 413 kts 244°
2026-05-07 16:19 49.06822 -53.68718 38085 ft 414 kts 244°
2026-05-07 16:20 49.04620 -53.77003 38081 ft 414 kts 244°
2026-05-07 16:20 49.02345 -53.85534 38075 ft 414 kts 244°
2026-05-07 16:21 49.00135 -53.93788 38071 ft 414 kts 244°
2026-05-07 16:21 48.97864 -54.02242 38068 ft 414 kts 244°
2026-05-07 16:22 48.95646 -54.10465 38062 ft 415 kts 244°
2026-05-07 16:22 48.93426 -54.18671 38056 ft 415 kts 244°
2026-05-07 16:23 48.91577 -54.25479 38037 ft 415 kts 244°
2026-05-07 16:23 48.88969 -54.35057 38050 ft 415 kts 244°
2026-05-07 16:24 48.86668 -54.43467 38036 ft 415 kts 244°
2026-05-07 16:24 48.84443 -54.51579 38033 ft 415 kts 244°
2026-05-07 16:25 48.82166 -54.59843 38034 ft 415 kts 244°
2026-05-07 16:25 48.80271 -54.66708 38039 ft 415 kts 244°
2026-05-07 16:26 48.77981 -54.74968 38034 ft 416 kts 244°
2026-05-07 16:26 48.75100 -54.85325 38033 ft 416 kts 244°
2026-05-07 16:27 48.72490 -54.94667 38030 ft 416 kts 244°
2026-05-07 16:27 48.70175 -55.02922 38021 ft 417 kts 244°
2026-05-07 16:28 48.67806 -55.11340 38018 ft 417 kts 244°
2026-05-07 16:28 48.65227 -55.20472 38006 ft 418 kts 244°
2026-05-07 16:29 48.62624 -55.29652 38001 ft 418 kts 244°
2026-05-07 16:29 48.60693 -55.36443 37993 ft 418 kts 244°
2026-05-07 16:30 48.58289 -55.44862 37988 ft 419 kts 244°
2026-05-07 16:30 48.55970 -55.52963 37982 ft 419 kts 244°
2026-05-07 16:31 48.53590 -55.61243 37978 ft 419 kts 244°
2026-05-07 16:31 48.51234 -55.69417 37973 ft 420 kts 244°
2026-05-07 16:32 48.48883 -55.77543 37964 ft 420 kts 244°
2026-05-07 16:32 48.46527 -55.85661 37959 ft 420 kts 244°
2026-05-07 16:33 48.44175 -55.93737 37957 ft 420 kts 244°
2026-05-07 16:33 48.41799 -56.01868 37950 ft 420 kts 244°
2026-05-07 16:34 48.39431 -56.09943 37946 ft 420 kts 245°
2026-05-07 16:34 48.37052 -56.18033 37951 ft 420 kts 245°
2026-05-07 16:35 48.34646 -56.26185 37938 ft 420 kts 245°
2026-05-07 16:35 48.31862 -56.35584 37948 ft 420 kts 245°
2026-05-07 16:36 48.29148 -56.44712 37932 ft 420 kts 245°
2026-05-07 16:36 48.26706 -56.52897 37936 ft 420 kts 245°
2026-05-07 16:37 48.24294 -56.60955 37937 ft 420 kts 245°
2026-05-07 16:37 48.21871 -56.69023 37936 ft 420 kts 245°
2026-05-07 16:38 48.19466 -56.77003 37945 ft 420 kts 245°
2026-05-07 16:38 48.17029 -56.85066 37953 ft 420 kts 245°
2026-05-07 16:39 48.14599 -56.93075 37962 ft 420 kts 245°
2026-05-07 16:39 48.12180 -57.01027 37972 ft 420 kts 245°
2026-05-07 16:40 48.09722 -57.09078 37972 ft 420 kts 245°
2026-05-07 16:40 48.07294 -57.17008 37978 ft 420 kts 245°
2026-05-07 16:41 48.04842 -57.24990 37979 ft 420 kts 245°
2026-05-07 16:41 48.02392 -57.32939 37985 ft 420 kts 245°
2026-05-07 16:42 47.99933 -57.40890 37984 ft 420 kts 245°
2026-05-07 16:42 47.97465 -57.48849 37978 ft 420 kts 245°
2026-05-07 16:43 47.94996 -57.56781 37975 ft 420 kts 245°
2026-05-07 16:43 47.92521 -57.64711 37977 ft 419 kts 245°
2026-05-07 16:44 47.90043 -57.72627 37976 ft 419 kts 245°
2026-05-07 16:44 47.87550 -57.80564 37966 ft 418 kts 245°
2026-05-07 16:45 47.85070 -57.88435 37970 ft 418 kts 245°
2026-05-07 16:45 47.82600 -57.96251 37963 ft 418 kts 245°
2026-05-07 16:46 47.80097 -58.04145 37962 ft 418 kts 245°
2026-05-07 16:46 47.77596 -58.12008 37950 ft 418 kts 245°
2026-05-07 16:47 47.75088 -58.19868 37948 ft 418 kts 245°
2026-05-07 16:47 47.72581 -58.27705 37945 ft 418 kts 245°
2026-05-07 16:48 47.70067 -58.35534 37944 ft 418 kts 245°
2026-05-07 16:48 47.67541 -58.43378 37935 ft 418 kts 245°
2026-05-07 16:49 47.65013 -58.51205 37935 ft 418 kts 245°
2026-05-07 16:49 47.62490 -58.58991 37923 ft 418 kts 245°
2026-05-07 16:50 47.59954 -58.66792 37917 ft 418 kts 245°
2026-05-07 16:50 47.57413 -58.74588 37911 ft 417 kts 245°
2026-05-07 16:51 47.54890 -58.82304 37911 ft 417 kts 245°
2026-05-07 16:51 47.52340 -58.90079 37900 ft 417 kts 245°
2026-05-07 16:52 47.49787 -58.97840 37889 ft 417 kts 245°
2026-05-07 16:52 47.47211 -59.05647 37881 ft 416 kts 245°
2026-05-07 16:53 47.44651 -59.13382 37865 ft 416 kts 245°
2026-05-07 16:53 47.42098 -59.21072 37858 ft 416 kts 245°
2026-05-07 16:54 47.39530 -59.28785 37844 ft 416 kts 245°
2026-05-07 16:54 47.36961 -59.36480 37833 ft 415 kts 245°
2026-05-07 16:55 47.34382 -59.44179 37823 ft 415 kts 245°
2026-05-07 16:55 47.31803 -59.51855 37818 ft 415 kts 245°
2026-05-07 16:56 47.29222 -59.59516 37801 ft 416 kts 245°
2026-05-07 16:56 47.25381 -59.70955 37838 ft 406 kts 243°
2026-05-07 16:57 47.22838 -59.78405 37789 ft 405 kts 243°
2026-05-07 16:57 47.20296 -59.85844 37779 ft 405 kts 243°
2026-05-07 16:58 47.17764 -59.93245 37779 ft 405 kts 243°
2026-05-07 16:58 47.15212 -60.00693 37769 ft 405 kts 243°
2026-05-07 16:59 47.12658 -60.08131 37760 ft 405 kts 243°
2026-05-07 16:59 47.10102 -60.15553 37756 ft 405 kts 243°
2026-05-07 17:00 47.07548 -60.22949 37753 ft 405 kts 243°
2026-05-07 17:00 47.04983 -60.30359 37743 ft 405 kts 243°
2026-05-07 17:01 47.02409 -60.37773 37738 ft 405 kts 243°
2026-05-07 17:01 46.99841 -60.45149 37728 ft 405 kts 242°
2026-05-07 17:02 46.97177 -60.52778 37727 ft 405 kts 242°
2026-05-07 17:02 46.94594 -60.60154 37728 ft 406 kts 242°
2026-05-07 17:03 46.92017 -60.67495 37727 ft 406 kts 242°
2026-05-07 17:03 46.89392 -60.74953 37714 ft 403 kts 242°
2026-05-07 17:04 46.86817 -60.82243 37718 ft 405 kts 242°
2026-05-07 17:04 46.84224 -60.89570 37723 ft 405 kts 242°
2026-05-07 17:05 46.81617 -60.96916 37711 ft 404 kts 242°
2026-05-07 17:05 46.78892 -61.04569 37713 ft 404 kts 242°
2026-05-07 17:06 46.76221 -61.12051 37704 ft 403 kts 242°
2026-05-07 17:06 46.73594 -61.19387 37708 ft 402 kts 242°
2026-05-07 17:07 46.70993 -61.26630 37709 ft 401 kts 242°
2026-05-07 17:07 46.68379 -61.33893 37700 ft 400 kts 242°
2026-05-07 17:08 46.65781 -61.41089 37706 ft 399 kts 242°
2026-05-07 17:08 46.63135 -61.48394 37703 ft 398 kts 242°
2026-05-07 17:09 46.60503 -61.55646 37708 ft 397 kts 242°
2026-05-07 17:09 46.57794 -61.63088 37718 ft 396 kts 242°
2026-05-07 17:10 46.55201 -61.70191 37706 ft 395 kts 242°
2026-05-07 17:10 46.52589 -61.77329 37708 ft 394 kts 242°
2026-05-07 17:11 46.49997 -61.84393 37719 ft 394 kts 242°
2026-05-07 17:11 46.47391 -61.91477 37726 ft 393 kts 242°
2026-05-07 17:12 46.44436 -61.99484 37715 ft 392 kts 242°
2026-05-07 17:12 46.42185 -62.05572 37714 ft 392 kts 242°
2026-05-07 17:13 46.38828 -62.14623 37716 ft 391 kts 241°
2026-05-07 17:13 46.36530 -62.20799 37713 ft 390 kts 241°
2026-05-07 17:14 46.33262 -62.29561 37700 ft 389 kts 241°
2026-05-07 17:14 46.30652 -62.36530 37695 ft 389 kts 241°
2026-05-07 17:15 46.28049 -62.43467 37705 ft 389 kts 241°
2026-05-07 17:15 46.25415 -62.50482 37697 ft 388 kts 241°
2026-05-07 17:16 46.22772 -62.57496 37696 ft 387 kts 241°
2026-05-07 17:16 46.20144 -62.64451 37690 ft 387 kts 241°
2026-05-07 17:17 46.17502 -62.71424 37681 ft 387 kts 241°
2026-05-07 17:17 46.14892 -62.78293 37680 ft 386 kts 241°
2026-05-07 17:18 46.12291 -62.85121 37657 ft 386 kts 241°
2026-05-07 17:18 46.09698 -62.91912 37647 ft 385 kts 241°
2026-05-07 17:19 46.07056 -62.98813 37650 ft 385 kts 241°
2026-05-07 17:19 46.04402 -63.05730 37657 ft 384 kts 241°
2026-05-07 17:20 46.01799 -63.12499 37658 ft 384 kts 241°
2026-05-07 17:20 45.99172 -63.19306 37666 ft 384 kts 241°
2026-05-07 17:21 45.96572 -63.26032 37678 ft 383 kts 241°
2026-05-07 17:21 45.93951 -63.32795 37679 ft 383 kts 241°
2026-05-07 17:22 45.91198 -63.39881 37686 ft 383 kts 241°
2026-05-07 17:22 45.88289 -63.47347 37668 ft 383 kts 241°
2026-05-07 17:23 45.86058 -63.53060 37670 ft 383 kts 240°
2026-05-07 17:23 45.83408 -63.59829 37669 ft 384 kts 240°
2026-05-07 17:24 45.80737 -63.66636 37666 ft 384 kts 240°
2026-05-07 17:24 45.78094 -63.73354 37668 ft 384 kts 240°
2026-05-07 17:25 45.75448 -63.80066 37665 ft 384 kts 240°
2026-05-07 17:25 45.72742 -63.86911 37653 ft 384 kts 240°
2026-05-07 17:26 45.70056 -63.93688 37652 ft 384 kts 240°
2026-05-07 17:26 45.67405 -64.00361 37653 ft 383 kts 240°
2026-05-07 17:27 45.64744 -64.07044 37654 ft 383 kts 240°
2026-05-07 17:27 45.62096 -64.13680 37652 ft 383 kts 240°
2026-05-07 17:28 45.59430 -64.20342 37658 ft 382 kts 240°
2026-05-07 17:28 45.56693 -64.27165 37654 ft 382 kts 240°
2026-05-07 17:29 45.53892 -64.34133 37658 ft 382 kts 240°
2026-05-07 17:29 45.51098 -64.41064 37665 ft 382 kts 240°
2026-05-07 17:30 45.48228 -64.48167 37665 ft 382 kts 240°
2026-05-07 17:30 45.45425 -64.55087 37670 ft 382 kts 240°
2026-05-07 17:31 45.42371 -64.62605 37673 ft 383 kts 240°
2026-05-07 17:31 45.39488 -64.69683 37675 ft 383 kts 240°
2026-05-07 17:32 45.36543 -64.76895 37677 ft 383 kts 240°
2026-05-07 17:32 45.34082 -64.82909 37680 ft 383 kts 240°
2026-05-07 17:33 45.30848 -64.90791 37682 ft 383 kts 240°
2026-05-07 17:33 45.28035 -64.97629 37684 ft 383 kts 240°
2026-05-07 17:34 45.25170 -65.04578 37681 ft 383 kts 240°
2026-05-07 17:34 45.22320 -65.11471 37686 ft 383 kts 240°
2026-05-07 17:35 45.19391 -65.18541 37684 ft 383 kts 240°
2026-05-07 17:35 45.16646 -65.25149 37688 ft 383 kts 240°
2026-05-07 17:36 45.13914 -65.31709 37686 ft 383 kts 240°
2026-05-07 17:36 45.11159 -65.38309 37687 ft 383 kts 240°
2026-05-07 17:37 45.08410 -65.44880 37688 ft 383 kts 240°
2026-05-07 17:37 45.05660 -65.51437 37689 ft 382 kts 240°
2026-05-07 17:38 45.02623 -65.58663 37694 ft 382 kts 240°
2026-05-07 17:38 44.99756 -65.65468 37697 ft 382 kts 240°
2026-05-07 17:39 44.96934 -65.72148 37701 ft 381 kts 240°
2026-05-07 17:39 44.94054 -65.78951 37703 ft 381 kts 240°
2026-05-07 17:40 44.91193 -65.85693 37704 ft 381 kts 240°
2026-05-07 17:40 44.88165 -65.92809 37703 ft 381 kts 240°
2026-05-07 17:41 44.85239 -65.99670 37703 ft 380 kts 240°
2026-05-07 17:41 44.82306 -66.06529 37703 ft 380 kts 240°
2026-05-07 17:42 44.79247 -66.13666 37704 ft 379 kts 240°
2026-05-07 17:42 44.76389 -66.20320 37707 ft 379 kts 240°
2026-05-07 17:43 44.73427 -66.27197 37709 ft 378 kts 240°
2026-05-07 17:43 44.70451 -66.34093 37709 ft 378 kts 240°
2026-05-07 17:44 44.67402 -66.41138 37710 ft 378 kts 240°
2026-05-07 17:44 44.64372 -66.48125 37705 ft 378 kts 240°
2026-05-07 17:45 44.61258 -66.55286 37705 ft 378 kts 240°
2026-05-07 17:45 44.58264 -66.62154 37702 ft 378 kts 240°
2026-05-07 17:46 44.55374 -66.68772 37709 ft 377 kts 240°
2026-05-07 17:46 44.52395 -66.75575 37711 ft 377 kts 240°
2026-05-07 17:47 44.49433 -66.82329 37714 ft 377 kts 240°
2026-05-07 17:47 44.46536 -66.88913 37721 ft 376 kts 240°
2026-05-07 17:48 44.43675 -66.95588 37719 ft 377 kts 242°
2026-05-07 17:48 44.41286 -67.02275 37724 ft 376 kts 246°
2026-05-07 17:49 44.39309 -67.09222 37723 ft 376 kts 249°
2026-05-07 17:49 44.37526 -67.16148 37724 ft 375 kts 249°
2026-05-07 17:50 44.35731 -67.23108 37726 ft 375 kts 249°
2026-05-07 17:50 44.33954 -67.30001 37726 ft 375 kts 249°
2026-05-07 17:51 44.32181 -67.36868 37731 ft 375 kts 249°
2026-05-07 17:51 44.30396 -67.43768 37729 ft 375 kts 249°
2026-05-07 17:52 44.28600 -67.50694 37729 ft 375 kts 249°
2026-05-07 17:52 44.26708 -67.57967 37731 ft 375 kts 249°
2026-05-07 17:53 44.24842 -67.65120 37729 ft 375 kts 249°
2026-05-07 17:53 44.22994 -67.72184 37732 ft 374 kts 249°
2026-05-07 17:54 44.21130 -67.79288 37733 ft 374 kts 249°
2026-05-07 17:54 44.19308 -67.86208 37736 ft 374 kts 249°
2026-05-07 17:55 44.17386 -67.93490 37724 ft 373 kts 249°
2026-05-07 17:55 44.15401 -68.00990 37745 ft 373 kts 249°
2026-05-07 17:56 44.13601 -68.07766 37725 ft 373 kts 249°
2026-05-07 17:56 44.11733 -68.14777 37751 ft 373 kts 249°
2026-05-07 17:57 44.10090 -68.20929 37738 ft 372 kts 249°
2026-05-07 17:57 44.07935 -68.28975 37751 ft 372 kts 249°
2026-05-07 17:58 44.06085 -68.35858 37736 ft 372 kts 249°
2026-05-07 17:58 44.04268 -68.42602 37757 ft 372 kts 249°
2026-05-07 17:59 44.02404 -68.49500 37761 ft 372 kts 249°
2026-05-07 17:59 44.00541 -68.56377 37743 ft 372 kts 249°
2026-05-07 18:00 43.98561 -68.63662 37740 ft 372 kts 249°
2026-05-07 18:00 43.96551 -68.71032 37746 ft 372 kts 249°
2026-05-07 18:01 43.94704 -68.77788 37740 ft 372 kts 249°
2026-05-07 18:01 43.92706 -68.85075 37743 ft 372 kts 249°
2026-05-07 18:02 43.89752 -68.95809 37740 ft 373 kts 249°
2026-05-07 18:03 43.87722 -69.03159 37739 ft 373 kts 249°
2026-05-07 18:03 43.85830 -69.09991 37734 ft 373 kts 249°
2026-05-07 18:04 43.83853 -69.17106 37747 ft 372 kts 248°
2026-05-07 18:04 43.81901 -69.24111 37737 ft 372 kts 248°
2026-05-07 18:05 43.79874 -69.31364 37748 ft 373 kts 248°
2026-05-07 18:05 43.77851 -69.38586 37762 ft 373 kts 248°
2026-05-07 18:06 43.75905 -69.45510 37757 ft 372 kts 248°
2026-05-07 18:06 43.73815 -69.52926 37759 ft 373 kts 248°
2026-05-07 18:07 43.71834 -69.59935 37755 ft 373 kts 248°
2026-05-07 18:07 43.69766 -69.67232 37757 ft 373 kts 248°
2026-05-07 18:08 43.67602 -69.74844 37770 ft 373 kts 248°
2026-05-07 18:08 43.65598 -69.81871 37762 ft 373 kts 248°
2026-05-07 18:09 43.63461 -69.89344 37761 ft 373 kts 248°
2026-05-07 18:09 43.61452 -69.96348 37753 ft 373 kts 248°
2026-05-07 18:10 43.59249 -70.04007 37751 ft 373 kts 248°
2026-05-07 18:10 43.57104 -70.11445 37750 ft 373 kts 248°
2026-05-07 18:11 43.55038 -70.18587 37749 ft 373 kts 248°
2026-05-07 18:11 43.52860 -70.26099 37755 ft 373 kts 248°
2026-05-07 18:12 43.50716 -70.33470 37751 ft 373 kts 248°
2026-05-07 18:12 43.48975 -70.39441 37749 ft 373 kts 248°
2026-05-07 18:13 43.46287 -70.48493 37764 ft 372 kts 245°
2026-05-07 18:13 43.44090 -70.53623 37768 ft 372 kts 237°
2026-05-07 18:14 43.40595 -70.59101 37773 ft 377 kts 228°
2026-05-07 18:14 43.36317 -70.63514 37766 ft 386 kts 218°
2026-05-07 18:15 43.31356 -70.66678 37776 ft 396 kts 210°
2026-05-07 18:15 43.25744 -70.69507 37766 ft 397 kts 210°
2026-05-07 18:16 43.20537 -70.72088 37760 ft 396 kts 210°
2026-05-07 18:16 43.15186 -70.74723 37752 ft 396 kts 210°
2026-05-07 18:17 43.09912 -70.77309 37748 ft 395 kts 210°
2026-05-07 18:17 43.04585 -70.79915 37745 ft 395 kts 210°
2026-05-07 18:18 42.99334 -70.82480 37751 ft 394 kts 210°
2026-05-07 18:18 42.93885 -70.85137 37746 ft 393 kts 210°
2026-05-07 18:19 42.88690 -70.87666 37754 ft 392 kts 210°
2026-05-07 18:19 42.83495 -70.90189 37783 ft 391 kts 210°
2026-05-07 18:20 42.78303 -70.92697 37788 ft 390 kts 210°
2026-05-07 18:20 42.72841 -70.95324 37791 ft 389 kts 210°
2026-05-07 18:21 42.67641 -70.97825 37777 ft 388 kts 210°
2026-05-07 18:21 42.62500 -71.00296 37781 ft 387 kts 210°
2026-05-07 18:22 42.57167 -71.02855 37776 ft 387 kts 210°
2026-05-07 18:22 42.51781 -71.05435 37779 ft 386 kts 211°
2026-05-07 18:23 42.46687 -71.07870 37788 ft 385 kts 211°
2026-05-07 18:23 42.41596 -71.10301 37794 ft 384 kts 211°
2026-05-07 18:24 42.35995 -71.12971 37781 ft 383 kts 211°
2026-05-07 18:24 42.30498 -71.15585 37790 ft 383 kts 211°
2026-05-07 18:25 42.25242 -71.18081 37794 ft 382 kts 211°
2026-05-07 18:25 42.20188 -71.20477 37794 ft 381 kts 211°
2026-05-07 18:26 42.15168 -71.22853 37793 ft 380 kts 211°
2026-05-07 18:26 42.10172 -71.25213 37794 ft 379 kts 211°
2026-05-07 18:27 42.05099 -71.27607 37796 ft 379 kts 211°
2026-05-07 18:27 42.00084 -71.29970 37811 ft 379 kts 211°
2026-05-07 18:28 41.94533 -71.32581 37815 ft 378 kts 211°
2026-05-07 18:28 41.89029 -71.35167 37820 ft 378 kts 211°
2026-05-07 18:29 41.83883 -71.37577 37807 ft 377 kts 211°
2026-05-07 18:29 41.78777 -71.40172 37806 ft 372 kts 215°
2026-05-07 18:30 41.73979 -71.43282 37811 ft 365 kts 219°
2026-05-07 18:30 41.69446 -71.46923 37818 ft 358 kts 223°
2026-05-07 18:31 41.65331 -71.50924 37818 ft 353 kts 227°
2026-05-07 18:31 41.61583 -71.55069 37218 ft 349 kts 228°
2026-05-07 18:31 41.59674 -71.57185 36275 ft 355 kts 228°
2026-05-07 18:32 41.57755 -71.59312 35316 ft 359 kts 228°
2026-05-07 18:32 41.55780 -71.61503 34428 ft 361 kts 228°
2026-05-07 18:32 41.53826 -71.63668 33629 ft 360 kts 228°
2026-05-07 18:32 41.51815 -71.65900 32638 ft 360 kts 228°
2026-05-07 18:33 41.49861 -71.68075 31607 ft 363 kts 227°
2026-05-07 18:33 41.47849 -71.70312 30497 ft 366 kts 227°
2026-05-07 18:33 41.45800 -71.72588 29305 ft 370 kts 227°
2026-05-07 18:33 41.43789 -71.74817 28058 ft 374 kts 226°
2026-05-07 18:34 41.41783 -71.77032 27208 ft 368 kts 226°
2026-05-07 18:34 41.39800 -71.79213 26637 ft 354 kts 226°
2026-05-07 18:34 41.37924 -71.81278 25851 ft 347 kts 226°
2026-05-07 18:34 41.36027 -71.83377 25268 ft 344 kts 226°
2026-05-07 18:35 41.34096 -71.85509 24851 ft 340 kts 226°
2026-05-07 18:35 41.32262 -71.87533 24376 ft 337 kts 226°
2026-05-07 18:35 41.30466 -71.89512 23955 ft 333 kts 226°
2026-05-07 18:35 41.28697 -71.91457 23731 ft 325 kts 226°
2026-05-07 18:36 41.26955 -71.93373 22955 ft 327 kts 226°
2026-05-07 18:36 41.25159 -71.95360 21725 ft 340 kts 226°
2026-05-07 18:36 41.23323 -71.97379 21181 ft 339 kts 225°
2026-05-07 18:36 41.21480 -71.99399 20947 ft 343 kts 225°
2026-05-07 18:37 41.19619 -72.01437 20698 ft 344 kts 225°
2026-05-07 18:37 41.17734 -72.03499 20463 ft 344 kts 225°
2026-05-07 18:37 41.15841 -72.05570 20202 ft 344 kts 225°
2026-05-07 18:37 41.13948 -72.07638 19946 ft 345 kts 225°
2026-05-07 18:38 41.12129 -72.09768 19696 ft 343 kts 230°
2026-05-07 18:38 41.10611 -72.12212 19447 ft 342 kts 237°
2026-05-07 18:38 41.09379 -72.14997 19184 ft 341 kts 244°
2026-05-07 18:38 41.08490 -72.17946 18780 ft 342 kts 250°
2026-05-07 18:39 41.07728 -72.20929 18326 ft 340 kts 251°
2026-05-07 18:39 41.06979 -72.23919 17867 ft 336 kts 251°
2026-05-07 18:39 41.06247 -72.26856 17445 ft 332 kts 251°
2026-05-07 18:39 41.05524 -72.29758 17044 ft 327 kts 251°
2026-05-07 18:40 41.04819 -72.32592 16670 ft 323 kts 251°
2026-05-07 18:40 41.04102 -72.35471 16291 ft 319 kts 251°
2026-05-07 18:40 41.03398 -72.38297 15919 ft 315 kts 251°
2026-05-07 18:40 41.02713 -72.41042 15549 ft 312 kts 251°
2026-05-07 18:41 41.02030 -72.43778 15194 ft 309 kts 251°
2026-05-07 18:41 41.01357 -72.46473 14838 ft 306 kts 251°
2026-05-07 18:41 41.00688 -72.49149 14485 ft 303 kts 251°
2026-05-07 18:41 41.00018 -72.51823 14144 ft 301 kts 251°
2026-05-07 18:42 40.99357 -72.54462 13786 ft 299 kts 251°
2026-05-07 18:42 40.98687 -72.57131 13365 ft 298 kts 251°
2026-05-07 18:42 40.98027 -72.59751 12976 ft 294 kts 251°
2026-05-07 18:42 40.97391 -72.62277 12829 ft 281 kts 251°
2026-05-07 18:43 40.96784 -72.64692 12724 ft 269 kts 251°
2026-05-07 18:43 40.96201 -72.67009 12596 ft 256 kts 251°
2026-05-07 18:43 40.95643 -72.69220 12502 ft 244 kts 251°
2026-05-07 18:43 40.95114 -72.71314 12398 ft 233 kts 251°
2026-05-07 18:44 40.94607 -72.73322 12299 ft 224 kts 251°
2026-05-07 18:44 40.94224 -72.74834 12242 ft 233 kts 251°
2026-05-07 18:45 40.94156 -72.75104 12228 ft 234 kts 251°
2026-05-07 18:45 40.93621 -72.77215 12140 ft 238 kts 251°
2026-05-07 18:45 40.92891 -72.79187 12027 ft 238 kts 238°
2026-05-07 18:46 40.91810 -72.80830 11979 ft 242 kts 227°
2026-05-07 18:46 40.90453 -72.82227 11994 ft 247 kts 223°
2026-05-07 18:46 40.89055 -72.83584 11993 ft 248 kts 223°
2026-05-07 18:46 40.87651 -72.84938 11994 ft 248 kts 223°
2026-05-07 18:47 40.86254 -72.86284 11991 ft 248 kts 223°
2026-05-07 18:47 40.84858 -72.87622 11897 ft 243 kts 223°
2026-05-07 18:47 40.83482 -72.88942 11441 ft 246 kts 223°
2026-05-07 18:47 40.82084 -72.90284 11004 ft 247 kts 223°
2026-05-07 18:48 40.80688 -72.91621 10634 ft 247 kts 223°
2026-05-07 18:48 40.79290 -72.92960 10216 ft 247 kts 223°
2026-05-07 18:48 40.77890 -72.94301 9807 ft 248 kts 223°
2026-05-07 18:48 40.76488 -72.95643 9384 ft 248 kts 223°
2026-05-07 18:49 40.75071 -72.97001 8922 ft 250 kts 223°
2026-05-07 18:49 40.73655 -72.98358 8469 ft 252 kts 223°
2026-05-07 18:49 40.72213 -72.99737 8062 ft 254 kts 223°
2026-05-07 18:49 40.70759 -73.01124 7999 ft 257 kts 222°
2026-05-07 18:50 40.69344 -73.02584 7989 ft 255 kts 231°
2026-05-07 18:50 40.68259 -73.04457 7992 ft 250 kts 245°
2026-05-07 18:50 40.67575 -73.06536 8004 ft 247 kts 252°
2026-05-07 18:50 40.66981 -73.08658 7996 ft 246 kts 253°
2026-05-07 18:51 40.66392 -73.10789 7996 ft 246 kts 253°
2026-05-07 18:51 40.65777 -73.13004 7998 ft 246 kts 253°
2026-05-07 18:51 40.65147 -73.15261 7994 ft 246 kts 253°
2026-05-07 18:51 40.64554 -73.17377 7993 ft 246 kts 253°
2026-05-07 18:52 40.63953 -73.19513 7740 ft 247 kts 253°
2026-05-07 18:52 40.63353 -73.21641 7413 ft 246 kts 253°
2026-05-07 18:52 40.62756 -73.23746 7095 ft 243 kts 254°
2026-05-07 18:52 40.62170 -73.25817 6785 ft 240 kts 253°
2026-05-07 18:53 40.61575 -73.27915 6488 ft 241 kts 254°
2026-05-07 18:53 40.60982 -73.30016 6173 ft 242 kts 254°
2026-05-07 18:53 40.60392 -73.32118 5844 ft 243 kts 254°
2026-05-07 18:53 40.59798 -73.34230 5533 ft 244 kts 253°
2026-05-07 18:54 40.59199 -73.36352 5224 ft 245 kts 253°
2026-05-07 18:54 40.58593 -73.38491 4916 ft 246 kts 252°
2026-05-07 18:54 40.57989 -73.40620 4612 ft 248 kts 252°
2026-05-07 18:54 40.57374 -73.42782 4332 ft 248 kts 251°
2026-05-07 18:55 40.56769 -73.44897 4043 ft 249 kts 251°
2026-05-07 18:55 40.56148 -73.47070 3740 ft 249 kts 251°
2026-05-07 18:55 40.55494 -73.49356 3447 ft 250 kts 251°
2026-05-07 18:55 40.54868 -73.51546 3162 ft 248 kts 251°
2026-05-07 18:56 40.54522 -73.53694 3100 ft 233 kts 277°
2026-05-07 18:56 40.55021 -73.55669 3080 ft 216 kts 302°
2026-05-07 18:56 40.55827 -73.57293 3065 ft 208 kts 306°
2026-05-07 18:56 40.56662 -73.58920 3010 ft 209 kts 304°
2026-05-07 18:57 40.57444 -73.60556 2807 ft 210 kts 302°
2026-05-07 18:57 40.58201 -73.62221 2550 ft 202 kts 301°
2026-05-07 18:57 40.58940 -73.63873 2196 ft 188 kts 301°
2026-05-07 18:57 40.59613 -73.65372 1882 ft 167 kts 301°
2026-05-07 18:58 40.60188 -73.66648 1649 ft 152 kts 300°
2026-05-07 18:58 40.60736 -73.67868 1478 ft 152 kts 300°
2026-05-07 18:58 40.61280 -73.69085 1360 ft 152 kts 300°
2026-05-07 18:58 40.61836 -73.70334 1185 ft 152 kts 300°
2026-05-07 18:59 40.62381 -73.71561 924 ft 151 kts 300°
2026-05-07 18:59 40.62922 -73.72790 706 ft 150 kts 303°
2026-05-07 18:59 40.63483 -73.73988 423 ft 147 kts 303°
2026-05-07 18:59 40.64039 -73.75229 222 ft 145 kts 303°
2026-05-07 19:00 40.64623 -73.76512 42 ft 140 kts 304°
2026-05-07 19:00 40.65072 -73.77476 29 ft 81 kts 300°
2026-05-07 19:00 40.65246 -73.77854 37 ft 14 kts 301°
2026-05-07 19:00 40.65296 -73.77963 28 ft 15 kts 301°
2026-05-07 19:01 40.65355 -73.78094 30 ft 17 kts 301°
2026-05-07 19:01 40.65423 -73.78246 29 ft 19 kts 297°
2026-05-07 19:01 40.65410 -73.78359 30 ft 13 kts 226°
2026-05-07 19:01 40.65322 -73.78427 29 ft 10 kts 205°
2026-05-07 19:02 40.65279 -73.78430 29 ft 11 kts 146°
2026-05-07 19:02 40.65220 -73.78293 29 ft 15 kts 117°
2026-05-07 19:02 40.65165 -73.78154 29 ft 19 kts 118°
2026-05-07 19:02 40.65096 -73.77994 29 ft 22 kts 120°
2026-05-07 19:03 40.65008 -73.77802 28 ft 24 kts 122°
2026-05-07 19:03 40.64940 -73.77658 29 ft 26 kts 122°
2026-05-07 19:03 40.64809 -73.77367 29 ft 28 kts 120°
2026-05-07 19:03 40.64727 -73.77183 29 ft 17 kts 120°
2026-05-07 19:04 40.64674 -73.77108 29 ft 16 kts 152°
2026-05-07 19:04 40.64592 -73.77089 29 ft 12 kts 180°
2026-05-07 19:04 40.64504 -73.77090 29 ft 7 kts 180°
2026-05-07 19:04 40.64437 -73.77103 29 ft 10 kts 213°
2026-05-07 19:05 40.64358 -73.77163 29 ft 13 kts 210°
2026-05-07 19:05 40.64260 -73.77237 28 ft 17 kts 210°
2026-05-07 19:05 40.64142 -73.77329 29 ft 18 kts 211°
2026-05-07 19:05 40.64077 -73.77382 29 ft 6 kts 219°
2026-05-07 19:06 40.64078 -73.77438 29 ft 8 kts 303°
2026-05-07 19:06 40.64189 -73.77573 29 ft 8 kts 277°
2026-05-07 19:06 40.64165 -73.77675 29 ft 12 kts 244°
2026-05-07 19:07 40.64119 -73.77792 29 ft 15 kts 241°
2026-05-07 19:07 40.64080 -73.77883 29 ft 8 kts 241°
2026-05-07 19:07 40.64068 -73.77960 29 ft 9 kts 299°
2026-05-07 19:07 40.64089 -73.77994 29 ft 3 kts 310°
2026-05-07 19:08 40.64109 -73.78026 29 ft 6 kts 311°
2026-05-07 19:08 40.64137 -73.78082 29 ft 8 kts 276°
2026-05-07 19:08 40.64119 -73.78153 29 ft 3 kts 245°
2026-05-07 19:08 40.64117 -73.78156 29 ft 0 kts 244°
2026-05-07 19:09 40.64068 -73.78117 28 ft 0 kts 239°